Regional Weather Roundup
Issued by NWS

Home | Current Version | Previous Version | Text Only | Print | Product List | Glossary On
Versions: 1 2 3 4 5 6 7 8 9 10 11 12 13 14 15 16 17 18 19 20 21 22 23 24 25 26 27 28 29 30 31 32 33 34 35 36 37 38 39 40 41 42 43 44 45 46 47 48 49 50
000
ASUS44 KJAN 060810
RWRMS

MISSISSIPPI HOURLY WEATHER ROUNDUP
NATIONAL WEATHER SERVICE JACKSON MS
300 AM CDT WED MAY 06 2015

NOTE: "FAIR: INDICATES FEW OR NO CLOUDS BELOW 12,000 FEET WITH NO
SIGNIFICANT WEATHER AND/OR OBSTRUCTIONS TO VISIBILITY.

MSZ001>002-007>008-010>013-018>021-025>028-034>036-060900-
NORTHWEST MISSISSIPPI

CITY           SKY/WX    TMP DP  RH WIND       PRES   REMARKS
CLARKSDALE     FAIR      64  57  77 CALM      30.12S
CLEVELAND      FAIR      68  60  74 SE7       30.09F
GREENWOOD      CLEAR     67  54  63 SE8       30.11F
GREENVILLE     CLEAR     68  56  65 SE8       30.09F
OLIVE BRANCH   CLEAR     63  57  82 CALM      30.13F
OXFORD         FAIR      59  55  88 SE6       30.15S
TUNICA         SUNNY     63  55  77 SE6       30.12S
$$

MSZ003>006-009-014>017-022>024-029>033-037>039-060900-
NORTHEAST MISSISSIPPI

CITY           SKY/WX    TMP DP  RH WIND       PRES   REMARKS
COLUMBUS AFB   CLEAR     57  50  77 NW2       30.14F
CORINTH        FAIR      59  57  94 CALM      30.15S
GOLDN TRIANGLE CLEAR     61  55  82 CALM      30.13F
STARKVILLE     FAIR      55  55 100 CALM      30.14S
TUPELO         CLEAR     61  56  83 CALM      30.15F
$$

MSZ040-058-060900-
CENTRAL MISSISSIPPI

CITY           SKY/WX    TMP DP  RH WIND       PRES   REMARKS
JACKSON INTL   CLEAR     61  57  87 CALM      30.10F
JACKSON HAWKNS CLEAR     63  58  83 E3        30.11F
MERIDIAN KEY   CLEAR     57  54  89 CALM      30.13F
MERIDIAN NAS   CLEAR     57  54  89 CALM      30.13F
RAYMOND        FAIR      59  54  82 CALM      30.10F HAZE
VICKSBURG      CLEAR     59  57  93 CALM      30.08F
$$

MSZ059>079-060900-
SOUTH MISSISSIPPI

CITY           SKY/WX    TMP DP  RH WIND       PRES   REMARKS
BROOKHAVEN     FAIR      59  57  94 CALM      30.11F
HATTIESBURG    CLEAR     59  57  93 CALM      30.11F
MCCOMB         CLEAR     62  58  86 E3        30.09F
NATCHEZ        CLEAR     63  55  77 SE3       30.08F
PINE BELT      CLEAR     57  54  88 CALM      30.12F
$$

MSZ080>082-060900-
COASTAL MISSISSIPPI

CITY           SKY/WX    TMP DP  RH WIND       PRES   REMARKS
BILOXI         CLEAR     67  65  96 E6        30.08F
PASCAGOULA     CLEAR     60  59  96 CALM      30.09F
GULFPORT       PTCLDY    66  62  87 CALM      30.08F
$$


USA.gov is the U.S. government's official web portal to all federal, state and local government web resources and services.